Charleston, WV

3:25 AM EDT on September 15, 2019 (GMT -0400)
Yeager Airport

Weather History for KCRW - August, 2019

Change the Weather History Date:

Sunday, August 25, 2019

  Actual Average Record
Temperature  
Mean Temperature 68 °F 74 °F  
Max Temperature 78 °F 84 °F 102 °F (1903)
Min Temperature 57 °F 64 °F 46 °F (1951)
Degree Days  
Heating Degree Days 0 0  
Month to date heating degree days 0 0  
Since 1 June heating degree days 7 13  
Since 1 July heating degree days 0 0  
Cooling Degree Days 3 9  
Month to date cooling degree days 292 242  
Year to date cooling degree days 1106 896  
Since 1 June cooling degree days 910 786  
Growing Degree Days 18 (Base 50)    
Moisture  
Dew Point 57 °F    
Average Humidity 73    
Maximum Humidity 100    
Minimum Humidity 45    
Precipitation  
Precipitation 0.00 in 0.10 in 1.60 in (1922)
Month to date precipitation 4.15 3.08  
Year to date precipitation 32.90 30.45  
Sea Level Pressure  
Sea Level Pressure 30.11 in    
Wind  
Wind Speed 6 mph (East)    
Max Wind Speed 13 mph    
Max Gust Speed 18 mph    
Visibility 7 miles    
Events      
T = Trace of Precipitation, MM = Missing Value Source: NWS Daily Summary

Daily Weather History Graph

Daily Weather History Graph

Search for Another Location

Airport or City:

Astronomy

Aug. 25, 2019 Rise Set
Actual Time 6:49 AM EDT 8:06 PM EDT
Civil Twilight 6:21 AM EDT 8:34 PM EDT
Nautical Twilight 5:49 AM EDT 9:07 PM EDT
Astronomical Twilight 5:14 AM EDT 9:41 PM EDT
Moon 1:25 AM EDT (8/25) 4:23 PM EDT (8/25)
Length of Visible Light 14h 12m
Length of Day
13h 17m
Waning Crescent, 29% of the Moon is Illuminated
Aug 25
Waning Crescent
Aug 30
New
Sep 5
First Quarter
Sep 14
Full
Sep 21
Last Quarter

Hourly Weather History & Observations

Time (EDT) Temp. Dew Point Humidity Pressure Visibility Wind Dir Wind Speed Gust Speed Precip Events Conditions
12:54 AM 63.0 °F 61.0 °F 93% 30.16 in 10.0 mi Calm Calm - N/A   Clear
1:18 AM 62.1 °F 61.0 °F 96% 30.17 in 10.0 mi Calm Calm - N/A   Scattered Clouds
1:28 AM 62.1 °F 61.0 °F 96% 30.17 in 1.0 mi Calm Calm - N/A   Scattered Clouds
1:54 AM 61.0 °F 60.1 °F 97% 30.14 in 1.0 mi Calm Calm - N/A   Partly Cloudy
2:54 AM 61.0 °F 60.1 °F 97% 30.12 in 1.0 mi NE 3.5 mph - N/A   Mist
3:54 AM 60.1 °F 59.0 °F 96% 30.12 in 2.0 mi NE 3.5 mph - N/A   Mist
4:54 AM 59.0 °F 57.9 °F 96% 30.12 in 2.0 mi ENE 4.6 mph - N/A   Mist
5:37 AM 57.9 °F 55.9 °F 93% 30.14 in 2.0 mi ENE 5.8 mph - N/A   Mist
5:54 AM 57.9 °F 57.0 °F 97% 30.12 in 2.0 mi ENE 3.5 mph - N/A   Mist
6:54 AM 57.0 °F 55.9 °F 96% 30.14 in 4.0 mi ENE 5.8 mph - N/A   Mist
7:14 AM 57.2 °F 55.4 °F 94% 30.15 in 4.0 mi ENE 4.6 mph - N/A   Scattered Clouds
7:54 AM 57.2 °F 57.2 °F 100% 30.14 in 4.0 mi ENE 5.8 mph - N/A   Partly Cloudy
8:54 AM 63.0 °F 57.9 °F 84% 30.14 in 10.0 mi NE 5.8 mph - N/A   Partly Cloudy
9:54 AM 68.0 °F 57.0 °F 68% 30.14 in 10.0 mi ESE 6.9 mph - N/A   Partly Cloudy
10:54 AM 72.0 °F 55.0 °F 55% 30.14 in 10.0 mi ESE 10.4 mph - N/A   Partly Cloudy
11:54 AM 75.0 °F 55.9 °F 51% 30.13 in 10.0 mi Variable 6.9 mph - N/A   Partly Cloudy
12:54 PM 77.0 °F 55.9 °F 48% 30.11 in 10.0 mi Variable 6.9 mph - N/A   Scattered Clouds
1:54 PM 75.9 °F 55.0 °F 48% 30.10 in 10.0 mi ESE 10.4 mph - N/A   Scattered Clouds
2:54 PM 77.0 °F 55.0 °F 47% 30.09 in 10.0 mi ESE 9.2 mph - N/A   Scattered Clouds
3:54 PM 77.0 °F 55.0 °F 47% 30.08 in 10.0 mi Variable 6.9 mph - N/A   Scattered Clouds
5:54 PM 78.1 °F 57.0 °F 48% 30.06 in 10.0 mi East 5.8 mph - N/A   Partly Cloudy
6:54 PM 75.9 °F 55.9 °F 50% 30.05 in 10.0 mi East 8.1 mph - N/A   Clear
7:54 PM 73.0 °F 55.9 °F 55% 30.05 in 10.0 mi East 5.8 mph - N/A   Partly Cloudy
8:54 PM 69.1 °F 57.9 °F 68% 30.06 in 10.0 mi East 4.6 mph - N/A   Clear
9:54 PM 68.0 °F 55.0 °F 63% 30.07 in 10.0 mi ENE 6.9 mph - N/A   Partly Cloudy
10:54 PM 64.9 °F 57.0 °F 75% 30.09 in 10.0 mi NE 4.6 mph - N/A   Clear
11:54 PM 66.9 °F 53.1 °F 61% 30.08 in 10.0 mi ESE 5.8 mph - N/A   Clear